SCP
0 0 -0 -0 -0 -0 0 0 0 0 0 0 0 1 1 1 2 2 2 2 2 2 2 2 2 2 2 2 2 1 1 1 1 1 1 1 1 0 0 0 0 0 0 0
0 0 0 0 0 0 0 0 0 0 0 0 1 1 1 2 2 2 2 2 2 2 2 2 2 2 2 1 1 1 1 1 1 1 1 1 1 1 0 0 0 0 0 0
0 0 0 0 0 0 0 0 0 0 0 0 1 1 2 2 2 2 2 2 2 2 2 2 2 2 1 1 1 1 1 1 1 1 1 1 1 1 0 0 0 0 0 0
0 0 0 0 0 0 0 0 0 0 0 1 1 2 2 2 2 2 2 2 2 2 1 1 1 1 1 1 1 1 1 1 1 1 1 1 1 1 1 0 0 0 0 0
0 0 0 0 0 0 0 0 0 0 1 1 2 2 2 2 2 2 2 2 1 1 1 1 1 1 1 1 1 1 1 1 1 2 2 1 1 1 1 0 0 0 0 0
0 0 0 0 0 0 0 0 0 0 1 1 2 2 2 2 2 2 2 1 1 1 1 1 1 1 1 1 1 1 1 1 2 2 2 2 1 1 1 0 0 0 0 0
0 0 0 0 0 0 0 0 0 1 1 1 2 1 1 2 2 2 2 1 1 1 1 1 1 1 1 1 1 1 1 1 1 2 2 1 1 1 1 1 0 0 0 0
0 0 0 0 0 0 0 0 0 1 1 1 1 1 1 2 2 2 1 1 1 1 1 1 1 1 1 1 1 1 1 1 1 1 1 1 1 1 1 1 1 0 0 0
0 0 0 0 0 0 0 0 1 1 1 1 1 1 1 1 1 1 1 1 1 1 1 1 1 0 0 0 1 1 1 1 1 1 1 1 1 1 1 1 1 1 0 0
0 0 0 0 0 0 0 0 1 1 1 1 1 1 1 1 1 1 1 1 1 1 1 1 0 0 0 0 0 0 1 1 1 0 0 0 0 0 0 0 0 0 0 0
0 0 0 0 0 0 0 0 1 1 1 1 1 1 1 1 1 1 1 1 1 1 1 0 0 0 0 0 0 0 0 0 0 0 0 0 0 0 0 0 0 0 0 0
0 0 0 0 0 0 0 0 0 1 1 1 1 1 1 1 1 1 1 1 1 1 1 0 0 0 0 0 0 0 0 0 0 0 0 0 0 0 0 0 0 0 0 0
0 0 0 0 0 0 0 0 0 0 1 1 1 1 1 1 1 1 1 1 1 1 0 0 0 0 0 0 0 0 0 0 0 0 0 0 0 0 0 0 0 0 0 0
0 0 0 0 0 0 0 0 0 0 0 1 1 1 1 1 1 1 1 1 1 0 0 0 0 0 0 0 0 0 0 0 0 0 0 0 0 0 0 0 0 0 0 0
0 0 0 0 0 0 0 0 0 0 0 1 1 1 1 1 1 1 1 1 1 0 0 0 0 0 0 0 0 0 0 0 0 0 0 0 0 0 0 0 0 0 0 0
0 0 0 0 0 0 0 0 0 0 0 1 1 1 1 1 1 1 1 1 0 0 0 0 0 0 0 0 0 0 0 0 0 0 0 0 0 0 0 0 0 0 0 0
0 0 0 0 0 0 0 0 0 0 0 1 1 1 1 1 1 1 1 0 0 0 0 0 0 0 0 0 0 0 0 0 0 0 0 0 0 0 0 0 0 0 0 0
0 0 0 0 0 0 0 0 0 0 0 0 1 1 1 1 1 0 0 0 0 0 0 0 0 0 0 0 0 0 0 0 0 0 0 0 0 0 0 0 0 0 0 0
0 0 0 0 0 0 0 0 0 0 0 1 1 1 1 0 0 0 0 0 0 0 0 0 0 0 0 0 0 0 0 0 0 0 0 0 0 0 0 0 0 0 0 0
0 0 0 0 0 0 0 0 0 0 0 0 1 1 0 0 0 0 0 0 0 0 0 0 0 0 0 0 0 0 0 0 0 0 0 0 0 0 0 0 0 0 0 0
0 0 0 0 0 0 0 0 0 0 0 0 0 0 0 0 0 0 0 0 0 0 0 0 0 0 0 0 0 0 0 0 0 0 0 0 0 0 0 0 0 0 0 0
0 0 0 0 0 0 0 0 0 0 0 0 0 0 0 0 0 0 0 0 0 0 0 0 0 0 0 0 0 0 0 0 0 0 0 0 0 0 0 0 0 0 0 0
0 0 0 0 0 0 0 0 0 0 0 0 0 0 0 0 0 0 0 0 0 0 0 0 0 0 0 0 0 0 0 0 0 0 0 0 0 0 0 0 0 0 0 0
0 0 0 0 0 0 0 0 0 0 0 0 0 0 0 0 0 0 0 0 0 0 0 0 0 0 0 0 0 0 0 0 0 0 0 0 0 0 0 0 0 0 0 0
0 0 0 0 0 0 0 0 0 0 0 0 0 0 0 0 0 0 0 0 0 0 0 0 0 0 0 0 0 0 0 0 0 0 0 0 0 0 0 0 0 0 0 0
0 0 0 0 0 0 0 0 0 0 0 0 0 0 0 0 0 0 0 0 0 0 0 0 0 0 0 0 0 0 0 0 0 0 0 0 0 0 0 0 0 0 0 0
0 0 0 0 0 0 0 0 0 0 0 0 0 0 0 0 0 0 0 0 0 0 0 0 0 0 0 0 0 0 0 0 0 0 0 0 0 0 0 0 0 0 0 0
Wind_Speed
4 5 3 3 5 4 4 7 7 7 7 8 8 8 7 7 7 8 7 7 8 7 6 7 6 5 5 3 4 5 6 5 5 4 3 3 2 2 2 2 1 1 1 1
2 3 3 3 4 3 4 4 4 5 5 5 5 5 6 7 8 8 8 8 8 8 8 8 8 6 5 4 3 4 5 5 4 3 3 3 2 2 2 2 1 2 1 1
2 4 3 4 4 3 2 2 6 6 6 4 6 8 8 8 8 8 8 8 8 8 7 7 7 7 6 4 4 5 5 4 4 3 3 3 3 3 2 2 2 2 1 2
2 2 4 8 5 3 3 0 2 4 6 9 9 8 6 7 9 9 8 8 6 7 7 6 6 6 6 4 4 5 5 4 4 3 3 3 3 3 2 2 2 2 2 2
4 2 5 6 3 2 3 1 1 5 6 7 8 7 3 3 8 9 9 7 6 6 6 6 7 7 7 5 4 4 4 4 4 4 3 3 2 2 2 3 3 2 2 2
4 3 6 7 6 1 5 1 3 4 8 9 8 5 3 4 8 8 8 7 6 6 6 6 5 6 7 5 4 4 4 4 3 4 4 3 3 2 2 3 3 2 3 3
4 3 6 6 5 2 5 6 4 4 7 7 5 7 7 7 8 8 8 8 8 8 7 5 6 7 7 5 4 4 4 4 4 4 4 3 3 3 3 3 3 3 3 2
4 3 8 4 2 3 6 4 3 4 4 5 6 7 8 9 8 8 8 7 8 8 6 5 6 7 6 4 3 4 5 5 4 3 3 4 4 3 3 3 4 3 3 2
7 7 6 2 3 3 5 5 3 4 5 8 7 7 8 7 7 7 7 6 6 8 7 4 5 7 6 3 4 5 6 5 4 3 3 3 4 4 3 2 2 2 2 1
1 1 1 2 3 4 5 5 5 6 6 7 8 7 7 7 7 6 6 6 6 7 7 5 4 5 5 5 5 6 6 5 4 4 4 3 3 3 3 2 1 1 1 1
1 1 3 5 3 4 6 6 7 6 5 6 8 7 7 7 7 6 5 4 5 6 6 5 4 4 4 5 5 5 5 4 4 4 4 4 3 3 2 1 2 3 2 2
5 5 4 2 0 4 7 6 6 6 5 5 7 7 7 6 5 6 6 5 5 5 5 4 4 4 3 4 5 6 4 4 3 3 3 3 3 3 5 3 2 2 2 2
5 3 4 3 2 3 5 5 5 5 5 4 4 6 7 5 4 5 6 6 6 6 5 5 4 4 4 4 5 5 4 4 3 4 4 3 3 3 2 2 4 3 2 2
3 4 3 2 2 3 4 4 4 4 3 4 4 5 6 5 5 6 5 5 6 5 5 4 4 3 3 4 5 4 4 5 5 4 4 4 3 3 2 2 1 1 1 0
2 3 4 3 3 3 3 4 4 2 2 3 3 5 6 6 5 4 4 5 6 5 4 4 4 3 3 4 5 5 4 3 3 4 4 4 3 3 2 2 2 1 0 1
3 3 3 3 2 2 3 3 3 1 2 2 3 3 5 5 5 4 4 5 6 5 4 4 4 4 4 5 4 4 3 6 5 4 4 4 3 3 3 3 3 2 3 2
4 2 2 2 2 2 2 2 2 2 3 3 4 4 4 5 5 4 3 4 5 5 5 5 4 4 4 5 5 3 3 4 5 3 3 3 4 4 4 4 3 3 3 4
4 5 5 5 4 3 3 3 3 2 3 4 5 5 5 5 5 5 4 3 3 2 3 4 4 4 4 4 4 4 3 3 3 3 3 3 4 4 4 4 4 4 3 3
2 2 2 3 3 3 3 3 3 3 3 4 5 5 4 4 4 4 4 4 4 3 3 4 5 4 4 5 5 3 4 4 3 3 3 4 4 4 4 4 4 5 4 3
2 1 1 0 1 1 2 2 3 2 3 4 5 4 3 3 4 4 4 4 4 4 4 4 4 3 4 4 4 3 4 4 4 3 3 3 4 4 4 4 5 5 4 4
2 1 1 1 0 1 2 2 3 3 2 4 5 5 5 4 4 4 4 3 3 3 4 5 4 3 3 3 4 3 3 3 3 3 3 3 3 3 4 4 4 4 4 4
2 2 1 0 1 1 0 1 2 3 2 2 4 4 4 4 4 3 4 4 4 5 3 3 3 4 4 4 3 3 3 3 3 3 3 3 3 3 4 4 4 4 4 4
0 1 1 0 1 1 1 1 2 2 2 3 3 4 5 4 4 4 3 3 4 5 3 3 4 6 6 3 3 3 3 3 3 3 3 4 4 3 4 4 4 4 4 4
1 1 1 1 1 0 1 1 2 2 2 2 3 4 4 3 2 3 3 5 5 5 3 4 6 6 5 3 3 3 3 3 3 3 4 4 4 4 4 4 4 3 4 4
1 1 1 1 1 1 2 2 1 1 1 1 2 3 3 3 4 4 4 4 5 4 3 4 6 5 4 3 3 3 3 4 4 3 3 3 4 4 3 3 3 3 4 4
1 2 2 3 3 2 2 2 1 2 1 1 2 2 1 1 3 3 3 4 5 4 3 3 3 4 3 4 4 4 3 3 4 4 3 3 3 3 3 4 4 4 4 4
1 1 1 2 2 2 2 2 2 2 2 2 2 2 1 1 2 2 3 3 3 3 3 3 3 3 3 3 3 3 3 3 3 3 3 3 2 3 4 5 4 4 4 4
Wind_Direction
213 234 228 250 261 238 175 177 179 209 194 207 189 169 157 144 136 131 133 138 142 151 151 146 140 139 137 153 164 159 153 158 170 172 153 145 149 158 148 141 146 153 124 89
314 307 314 289 274 243 203 177 170 161 214 219 172 134 124 136 141 141 145 144 147 151 150 149 147 145 137 140 146 138 148 158 160 153 145 147 154 142 128 124 120 107 99 95
254 305 1 282 252 215 209 186 162 179 213 167 144 146 151 154 149 152 150 145 148 150 154 153 150 149 148 156 155 150 152 152 149 149 150 153 144 127 123 118 103 100 102 95
146 51 226 245 240 158 138 91 150 154 166 162 161 160 154 149 147 147 145 143 147 150 152 150 146 143 144 146 147 148 147 146 146 144 143 143 135 135 135 127 114 110 100 102
124 175 260 279 278 148 141 266 179 140 152 149 131 96 68 139 141 146 147 144 144 141 137 139 142 142 135 138 140 137 140 142 146 143 141 134 134 142 140 126 113 106 101 96
130 160 225 247 273 243 110 267 279 142 149 150 130 130 200 173 137 133 135 133 131 127 118 123 128 126 122 130 138 145 148 145 142 139 138 140 142 132 125 123 123 109 83 81
149 199 256 254 279 70 137 220 246 158 152 149 156 173 164 141 128 130 132 132 129 122 120 129 130 125 125 133 147 146 127 117 112 116 120 120 111 102 105 113 106 97 89 70
150 187 250 279 36 156 200 194 154 133 133 121 122 120 123 125 123 118 117 122 125 118 118 125 124 122 124 136 150 127 117 110 105 104 109 104 99 94 96 112 112 108 98 72
179 208 236 251 181 194 152 135 122 112 115 116 117 119 119 123 125 122 122 120 120 122 120 119 126 130 133 146 132 124 120 114 112 108 98 103 109 107 95 95 111 118 116 108
119 257 283 18 62 68 104 118 121 121 123 120 124 127 125 126 124 120 120 125 124 120 119 123 125 130 142 148 141 128 125 123 116 106 92 80 82 89 99 95 103 125 140 149
135 244 41 22 38 82 79 80 87 87 101 118 123 129 130 129 128 126 125 128 129 131 134 138 135 133 141 138 128 122 125 124 115 108 106 91 74 62 86 118 199 176 177 179
202 205 153 205 341 88 91 86 86 88 78 91 119 132 126 128 134 135 138 134 133 131 135 140 137 135 141 140 132 132 131 132 131 129 124 114 109 71 43 43 37 101 142 162
177 177 157 162 120 92 103 98 92 96 107 111 113 123 127 131 135 135 137 140 149 151 150 148 143 147 156 156 144 146 153 159 154 150 146 143 146 138 117 30 40 54 96 132
137 118 101 107 134 118 107 93 86 80 96 119 125 124 124 126 130 136 148 155 150 144 146 148 146 159 170 154 150 159 163 167 167 167 164 163 166 165 160 160 149 356 0 84
81 132 154 141 130 118 109 98 87 79 105 110 122 128 131 134 143 148 151 144 134 134 141 143 150 183 182 158 159 168 170 173 172 166 166 164 164 170 179 178 172 173 182 323
86 75 91 101 118 122 124 126 132 150 146 134 133 146 153 148 145 144 147 146 145 158 169 163 174 192 182 170 169 174 182 185 177 168 168 165 166 173 180 187 187 188 197 201
115 121 141 141 146 148 155 162 164 167 159 159 162 157 144 135 134 143 160 167 167 173 176 175 188 192 181 176 174 177 182 190 184 171 176 178 180 188 188 189 197 205 211 206
168 181 180 170 173 182 179 171 161 159 173 173 159 149 147 154 163 172 175 163 149 158 183 189 191 188 187 187 182 178 180 188 185 182 187 188 190 192 192 194 200 201 207 207
130 176 192 180 183 175 181 184 178 176 177 161 152 158 166 171 172 171 163 158 161 184 214 207 194 191 198 198 185 178 179 186 193 194 191 189 187 190 191 192 197 200 197 194
92 55 54 86 93 133 170 164 141 158 166 155 150 152 161 175 170 166 166 181 200 203 203 194 184 186 193 195 183 183 187 191 195 198 192 190 191 195 195 195 196 195 198 201
102 69 50 48 19 96 136 145 152 179 183 166 162 170 178 184 180 172 170 199 232 212 198 190 185 185 187 191 187 190 188 193 195 195 196 195 197 200 200 197 192 193 197 203
115 117 107 42 35 15 150 166 172 174 180 181 178 175 176 187 191 191 196 202 207 203 194 187 191 196 194 190 193 196 198 200 196 190 192 193 197 203 205 197 193 196 197 198
48 133 120 150 215 251 229 184 173 167 184 204 200 193 193 196 189 184 208 214 197 197 193 196 201 202 201 193 194 198 203 203 198 194 191 191 195 199 203 201 198 193 190 187
307 264 238 249 267 247 253 235 195 190 202 209 209 199 189 188 209 212 197 190 194 196 201 204 204 208 207 203 196 200 203 202 200 200 196 194 194 196 197 196 195 189 178 172
268 259 243 238 241 228 226 221 204 206 209 227 228 215 200 196 197 201 189 186 190 194 206 215 216 217 214 209 205 204 206 210 203 193 195 194 192 188 187 184 180 171 162 164
253 254 245 231 221 216 209 192 203 222 215 228 256 249 221 203 190 188 185 185 192 198 205 216 218 215 215 213 213 206 203 203 199 194 192 194 186 176 168 161 156 152 149 153
272 269 264 269 257 225 206 198 204 215 212 203 224 242 209 185 180 182 184 183 185 194 202 211 213 210 208 207 207 204 198 193 188 176 172 171 163 159 156 151 146 143 141 143